MAS724 WIII-WMKK

Flight info

Callsign MAS724
Flight time 1h 31m
Altitude 34000
Route DOLTA T25 GUSKO A585 PLB G579 VJB A457 GUPTA GUPTA1G
Aircraft B38M/M-SDE1FGHILORVWXY/HB1

Departure

Time 2026-05-06 15:04
Airport Soekarno-Hatta International Airport (WIII)

Arrival

Time 2026-05-06 16:36
Airport Kuala Lumpur International Airport (WMKK)
Time Latitude Longitude Altitude Speed Heading
2026-05-06 14:35 -6.11766 106.65939 40 ft 0 kts 246°
2026-05-06 14:53 -6.11762 106.65947 40 ft 3 kts 249°
2026-05-06 14:54 -6.11756 106.65966 38 ft 3 kts 259°
2026-05-06 14:54 -6.11755 106.65986 39 ft 3 kts 277°
2026-05-06 14:54 -6.11760 106.66003 37 ft 3 kts 311°
2026-05-06 14:54 -6.11769 106.66011 38 ft 1 kts 339°
2026-05-06 14:55 -6.11770 106.66011 38 ft 2 kts 339°
2026-05-06 14:58 -6.11762 106.66008 37 ft 3 kts 339°
2026-05-06 14:58 -6.11743 106.66001 40 ft 7 kts 339°
2026-05-06 14:58 -6.11671 106.65974 40 ft 11 kts 339°
2026-05-06 14:58 -6.11597 106.65940 37 ft 13 kts 334°
2026-05-06 14:59 -6.11522 106.65886 40 ft 14 kts 288°
2026-05-06 14:59 -6.11537 106.65785 40 ft 16 kts 248°
2026-05-06 14:59 -6.11581 106.65675 40 ft 18 kts 248°
2026-05-06 14:59 -6.11630 106.65551 40 ft 20 kts 248°
2026-05-06 15:00 -6.11684 106.65415 41 ft 22 kts 248°
2026-05-06 15:00 -6.11721 106.65321 41 ft 23 kts 248°
2026-05-06 15:00 -6.11797 106.65127 41 ft 25 kts 249°
2026-05-06 15:00 -6.11857 106.64970 40 ft 26 kts 248°
2026-05-06 15:01 -6.11931 106.64796 40 ft 28 kts 248°
2026-05-06 15:01 -6.12000 106.64628 41 ft 24 kts 248°
2026-05-06 15:01 -6.12064 106.64463 40 ft 26 kts 248°
2026-05-06 15:01 -6.12135 106.64289 41 ft 28 kts 248°
2026-05-06 15:02 -6.12205 106.64112 38 ft 26 kts 248°
2026-05-06 15:02 -6.12257 106.63972 42 ft 16 kts 258°
2026-05-06 15:02 -6.12221 106.63901 43 ft 8 kts 329°
2026-05-06 15:02 -6.12169 106.63895 42 ft 6 kts 22°
2026-05-06 15:03 -6.12128 106.63912 44 ft 8 kts 22°
2026-05-06 15:03 -6.12074 106.63953 43 ft 12 kts 65°
2026-05-06 15:03 -6.12023 106.64081 41 ft 39 kts 68°
2026-05-06 15:03 -6.11826 106.64571 41 ft 109 kts 68°
2026-05-06 15:04 -6.11606 106.65125 44 ft 147 kts 68°
2026-05-06 15:04 -6.11174 106.66209 225 ft 179 kts 68°
2026-05-06 15:04 -6.10725 106.67359 987 ft 172 kts 69°
2026-05-06 15:04 -6.09980 106.68886 1584 ft 201 kts 55°
2026-05-06 15:05 -6.09302 106.69583 1786 ft 221 kts 36°
2026-05-06 15:05 -6.07892 106.70364 2306 ft 239 kts 29°
2026-05-06 15:05 -6.06376 106.71175 2966 ft 254 kts 30°
2026-05-06 15:05 -6.04729 106.71922 3647 ft 266 kts 12°
2026-05-06 15:06 -6.02894 106.71755 4553 ft 273 kts 342°
2026-05-06 15:06 -6.01259 106.70741 5310 ft 282 kts 319°
2026-05-06 15:06 -5.99808 106.69385 6116 ft 286 kts 320°
2026-05-06 15:06 -5.98318 106.68043 6886 ft 290 kts 320°
2026-05-06 15:07 -5.96801 106.66689 7640 ft 293 kts 320°
2026-05-06 15:07 -5.95494 106.65527 8286 ft 296 kts 320°
2026-05-06 15:07 -5.93938 106.64151 9053 ft 300 kts 320°
2026-05-06 15:07 -5.92364 106.62761 9811 ft 303 kts 320°
2026-05-06 15:08 -5.90765 106.61351 10403 ft 313 kts 320°
2026-05-06 15:08 -5.89067 106.59867 10716 ft 332 kts 320°
2026-05-06 15:08 -5.87287 106.58312 11128 ft 346 kts 320°
2026-05-06 15:08 -5.85459 106.56710 11799 ft 350 kts 320°
2026-05-06 15:09 -5.83614 106.55084 12514 ft 355 kts 320°
2026-05-06 15:09 -5.81750 106.53441 13229 ft 359 kts 320°
2026-05-06 15:09 -5.79864 106.51777 13942 ft 363 kts 320°
2026-05-06 15:09 -5.77955 106.50094 14645 ft 366 kts 320°
2026-05-06 15:10 -5.76031 106.48396 15349 ft 369 kts 320°
2026-05-06 15:10 -5.74098 106.46691 16039 ft 372 kts 320°
2026-05-06 15:10 -5.72145 106.44969 16706 ft 375 kts 320°
2026-05-06 15:10 -5.70179 106.43235 17357 ft 378 kts 320°
2026-05-06 15:11 -5.68191 106.41482 17995 ft 382 kts 320°
2026-05-06 15:11 -5.66192 106.39718 18546 ft 385 kts 320°
2026-05-06 15:11 -5.64171 106.37936 19079 ft 387 kts 320°
2026-05-06 15:11 -5.62142 106.36146 19610 ft 390 kts 320°
2026-05-06 15:12 -5.60093 106.34339 20117 ft 393 kts 320°
2026-05-06 15:12 -5.58033 106.32523 20627 ft 396 kts 320°
2026-05-06 15:12 -5.55988 106.30719 21114 ft 398 kts 320°
2026-05-06 15:12 -5.53871 106.28852 21605 ft 401 kts 320°
2026-05-06 15:13 -5.51764 106.26996 22079 ft 404 kts 320°
2026-05-06 15:13 -5.49647 106.25129 22543 ft 407 kts 320°
2026-05-06 15:13 -5.47513 106.23248 23012 ft 410 kts 320°
2026-05-06 15:13 -5.45391 106.21378 23443 ft 413 kts 320°
2026-05-06 15:14 -5.43230 106.19473 23808 ft 415 kts 320°
2026-05-06 15:14 -5.41052 106.17553 24181 ft 417 kts 320°
2026-05-06 15:14 -5.38866 106.15627 24550 ft 420 kts 320°
2026-05-06 15:14 -5.36662 106.13684 24914 ft 422 kts 320°
2026-05-06 15:15 -5.34452 106.11738 25281 ft 425 kts 320°
2026-05-06 15:15 -5.32225 106.09776 25630 ft 427 kts 320°
2026-05-06 15:15 -5.29982 106.07799 25990 ft 430 kts 320°
2026-05-06 15:15 -5.27731 106.05816 26343 ft 432 kts 320°
2026-05-06 15:16 -5.25466 106.03821 26700 ft 435 kts 320°
2026-05-06 15:16 -5.23191 106.01817 27050 ft 437 kts 320°
2026-05-06 15:16 -5.20902 105.99801 27390 ft 439 kts 320°
2026-05-06 15:16 -5.18597 105.97771 27741 ft 442 kts 320°
2026-05-06 15:17 -5.16277 105.95728 28075 ft 444 kts 320°
2026-05-06 15:17 -5.13951 105.93679 28409 ft 447 kts 320°
2026-05-06 15:17 -5.11447 105.91831 28718 ft 447 kts 332°
2026-05-06 15:17 -5.08728 105.90313 29048 ft 449 kts 331°
2026-05-06 15:18 -5.06009 105.88746 29345 ft 452 kts 331°
2026-05-06 15:18 -5.03267 105.87177 29680 ft 454 kts 332°
2026-05-06 15:18 -5.00515 105.85607 29974 ft 457 kts 332°
2026-05-06 15:18 -4.97744 105.84029 30230 ft 459 kts 332°
2026-05-06 15:19 -4.94963 105.82444 30509 ft 461 kts 332°
2026-05-06 15:19 -4.92174 105.80856 30779 ft 462 kts 332°
2026-05-06 15:19 -4.89366 105.79256 31042 ft 464 kts 332°
2026-05-06 15:19 -4.86550 105.77653 31313 ft 466 kts 332°
2026-05-06 15:20 -4.83726 105.76046 31572 ft 468 kts 332°
2026-05-06 15:20 -4.80891 105.74432 31827 ft 469 kts 332°
2026-05-06 15:20 -4.78045 105.72812 32098 ft 471 kts 332°
2026-05-06 15:20 -4.75194 105.71188 32343 ft 473 kts 332°
2026-05-06 15:21 -4.72328 105.69557 32597 ft 474 kts 332°
2026-05-06 15:21 -4.69449 105.67919 32836 ft 476 kts 332°
2026-05-06 15:21 -4.66566 105.66278 33096 ft 477 kts 332°
2026-05-06 15:21 -4.63684 105.64638 33417 ft 477 kts 332°
2026-05-06 15:22 -4.60804 105.62999 33745 ft 476 kts 332°
2026-05-06 15:22 -4.57914 105.61356 33893 ft 476 kts 332°
2026-05-06 15:22 -4.55041 105.59721 33887 ft 473 kts 332°
2026-05-06 15:23 -4.49327 105.56471 33889 ft 472 kts 332°
2026-05-06 15:23 -4.43612 105.53221 33884 ft 472 kts 332°
2026-05-06 15:24 -4.37887 105.49966 33887 ft 473 kts 332°
2026-05-06 15:24 -4.32205 105.46736 33888 ft 473 kts 332°
2026-05-06 15:25 -4.26449 105.43464 33885 ft 473 kts 332°
2026-05-06 15:25 -4.20723 105.40210 33886 ft 473 kts 331°
2026-05-06 15:26 -4.15003 105.36960 33888 ft 473 kts 331°
2026-05-06 15:26 -4.09288 105.33714 33888 ft 473 kts 331°
2026-05-06 15:27 -4.03566 105.30464 33890 ft 472 kts 331°
2026-05-06 15:27 -3.97845 105.27215 33885 ft 473 kts 331°
2026-05-06 15:28 -3.92120 105.23967 33884 ft 473 kts 331°
2026-05-06 15:28 -3.86417 105.20757 33884 ft 474 kts 331°
2026-05-06 15:29 -3.80670 105.17521 33884 ft 474 kts 331°
2026-05-06 15:29 -3.74919 105.14283 33890 ft 475 kts 331°
2026-05-06 15:30 -3.69163 105.11043 33889 ft 475 kts 331°
2026-05-06 15:30 -3.63407 105.07802 33882 ft 475 kts 331°
2026-05-06 15:31 -3.57640 105.04556 33875 ft 475 kts 331°
2026-05-06 15:31 -3.51876 105.01313 33876 ft 475 kts 331°
2026-05-06 15:32 -3.43231 104.96449 33875 ft 475 kts 331°
2026-05-06 15:32 -3.37468 104.93207 33871 ft 475 kts 332°
2026-05-06 15:33 -3.31703 104.89964 33873 ft 475 kts 332°
2026-05-06 15:33 -3.25947 104.86727 33875 ft 475 kts 332°
2026-05-06 15:34 -3.20184 104.83486 33871 ft 475 kts 332°
2026-05-06 15:34 -3.14421 104.80246 33875 ft 475 kts 332°
2026-05-06 15:35 -3.08667 104.77012 33883 ft 474 kts 332°
2026-05-06 15:35 -3.02912 104.73777 33880 ft 474 kts 332°
2026-05-06 15:36 -2.97170 104.70549 33884 ft 473 kts 332°
2026-05-06 15:36 -2.91430 104.67324 33882 ft 473 kts 332°
2026-05-06 15:37 -2.86102 104.63521 33897 ft 473 kts 316°
2026-05-06 15:37 -2.81345 104.58947 33883 ft 475 kts 317°
2026-05-06 15:38 -2.76608 104.54343 33879 ft 475 kts 317°
2026-05-06 15:38 -2.71881 104.49735 33875 ft 475 kts 317°
2026-05-06 15:39 -2.67151 104.45124 33874 ft 475 kts 317°
2026-05-06 15:39 -2.62423 104.40515 33873 ft 475 kts 317°
2026-05-06 15:40 -2.57382 104.36309 33866 ft 470 kts 334°
2026-05-06 15:40 -2.54376 104.35214 33881 ft 467 kts 349°
2026-05-06 15:40 -2.51159 104.34828 33882 ft 466 kts 360°
2026-05-06 15:41 -2.44677 104.34477 33881 ft 467 kts 357°
2026-05-06 15:41 -2.38192 104.34037 33882 ft 467 kts 357°
2026-05-06 15:42 -2.31703 104.33594 33882 ft 468 kts 357°
2026-05-06 15:42 -2.25204 104.33151 33884 ft 468 kts 357°
2026-05-06 15:43 -2.18709 104.32708 33887 ft 468 kts 357°
2026-05-06 15:43 -2.12219 104.32266 33886 ft 468 kts 357°
2026-05-06 15:44 -2.05727 104.31823 33887 ft 468 kts 357°
2026-05-06 15:44 -1.99234 104.31380 33888 ft 468 kts 357°
2026-05-06 15:45 -1.92731 104.30937 33892 ft 468 kts 357°
2026-05-06 15:45 -1.86225 104.30494 33894 ft 468 kts 357°
2026-05-06 15:46 -1.79713 104.30049 33891 ft 469 kts 357°
2026-05-06 15:46 -1.73206 104.29606 33896 ft 469 kts 357°
2026-05-06 15:47 -1.66690 104.29162 33898 ft 469 kts 357°
2026-05-06 15:47 -1.60177 104.28718 33895 ft 469 kts 357°
2026-05-06 15:48 -1.54765 104.28350 33896 ft 469 kts 357°
2026-05-06 15:48 -1.48242 104.27905 33898 ft 470 kts 357°
2026-05-06 15:49 -1.41715 104.27460 33895 ft 470 kts 357°
2026-05-06 15:49 -1.35183 104.27015 33897 ft 471 kts 357°
2026-05-06 15:50 -1.28645 104.26570 33893 ft 471 kts 357°
2026-05-06 15:50 -1.22097 104.26124 33892 ft 471 kts 357°
2026-05-06 15:51 -1.15555 104.25678 33887 ft 471 kts 357°
2026-05-06 15:51 -1.09013 104.25232 33892 ft 471 kts 357°
2026-05-06 15:52 -1.02468 104.24787 33892 ft 471 kts 357°
2026-05-06 15:52 -0.95927 104.24340 33893 ft 471 kts 357°
2026-05-06 15:53 -0.89373 104.23894 33896 ft 471 kts 357°
2026-05-06 15:53 -0.82833 104.23449 33893 ft 471 kts 357°
2026-05-06 15:54 -0.76284 104.23003 33890 ft 471 kts 357°
2026-05-06 15:54 -0.69745 104.22557 33888 ft 471 kts 357°
2026-05-06 15:55 -0.63208 104.22112 33890 ft 471 kts 357°
2026-05-06 15:55 -0.56666 104.21623 33881 ft 471 kts 352°
2026-05-06 15:56 -0.50225 104.20383 33890 ft 472 kts 350°
2026-05-06 15:56 -0.43783 104.19109 33889 ft 472 kts 350°
2026-05-06 15:57 -0.37334 104.17829 33890 ft 472 kts 350°
2026-05-06 15:57 -0.30903 104.16553 33889 ft 472 kts 350°
2026-05-06 15:58 -0.24464 104.15275 33889 ft 472 kts 350°
2026-05-06 15:58 -0.18030 104.13998 33889 ft 471 kts 350°
2026-05-06 15:59 -0.11596 104.12721 33893 ft 471 kts 350°
2026-05-06 15:59 -0.05166 104.11445 33892 ft 471 kts 350°
2026-05-06 16:00 0.01264 104.10169 33890 ft 471 kts 350°
2026-05-06 16:00 0.07687 104.08894 33894 ft 471 kts 350°
2026-05-06 16:01 0.14070 104.07627 33887 ft 471 kts 350°
2026-05-06 16:01 0.20550 104.06341 33885 ft 471 kts 350°
2026-05-06 16:02 0.26975 104.05066 33886 ft 471 kts 350°
2026-05-06 16:02 0.33409 104.03792 33884 ft 471 kts 350°
2026-05-06 16:03 0.39793 104.02527 33884 ft 471 kts 350°
2026-05-06 16:03 0.46259 104.01246 33886 ft 471 kts 350°
2026-05-06 16:04 0.52648 103.99981 33878 ft 471 kts 350°
2026-05-06 16:04 0.59080 103.98704 33881 ft 471 kts 350°
2026-05-06 16:05 0.65507 103.97427 33885 ft 471 kts 350°
2026-05-06 16:05 0.71927 103.96149 33883 ft 471 kts 349°
2026-05-06 16:06 0.78344 103.94796 33880 ft 471 kts 349°
2026-05-06 16:06 0.84757 103.93447 33879 ft 471 kts 349°
2026-05-06 16:07 0.91163 103.92101 33878 ft 471 kts 349°
2026-05-06 16:07 0.97575 103.90752 33879 ft 471 kts 349°
2026-05-06 16:08 1.03995 103.89395 33878 ft 471 kts 349°
2026-05-06 16:08 1.10407 103.88040 33878 ft 471 kts 349°
2026-05-06 16:09 1.16821 103.86684 33895 ft 471 kts 349°
2026-05-06 16:09 1.23141 103.84938 33890 ft 473 kts 335°
2026-05-06 16:10 1.28998 103.81938 33907 ft 474 kts 334°
2026-05-06 16:10 1.34800 103.78977 33883 ft 474 kts 334°
2026-05-06 16:11 1.40745 103.75942 33883 ft 474 kts 334°
2026-05-06 16:11 1.46613 103.72934 33884 ft 474 kts 334°
2026-05-06 16:12 1.52645 103.70377 33893 ft 471 kts 345°
2026-05-06 16:12 1.58915 103.68423 33884 ft 472 kts 344°
2026-05-06 16:13 1.64863 103.65718 33881 ft 474 kts 323°
2026-05-06 16:13 1.67193 103.63447 33879 ft 476 kts 308°
2026-05-06 16:13 1.68935 103.60635 33891 ft 478 kts 297°
2026-05-06 16:14 1.71965 103.54693 33884 ft 480 kts 297°
2026-05-06 16:14 1.74922 103.48720 33887 ft 480 kts 297°
2026-05-06 16:15 1.77866 103.42725 33888 ft 480 kts 297°
2026-05-06 16:15 1.80807 103.36729 33891 ft 481 kts 297°
2026-05-06 16:16 1.83753 103.30725 33887 ft 481 kts 297°
2026-05-06 16:16 1.86695 103.24727 33890 ft 481 kts 297°
2026-05-06 16:17 1.89632 103.18738 33586 ft 476 kts 297°
2026-05-06 16:17 1.91089 103.15766 32843 ft 477 kts 297°
2026-05-06 16:17 1.92553 103.12779 32079 ft 478 kts 297°
2026-05-06 16:18 1.94011 103.09805 31496 ft 475 kts 297°
2026-05-06 16:18 1.95461 103.06848 30980 ft 471 kts 297°
2026-05-06 16:18 1.96896 103.03921 30430 ft 469 kts 296°
2026-05-06 16:18 1.98329 103.00999 29813 ft 468 kts 296°
2026-05-06 16:19 1.99761 102.98078 29140 ft 466 kts 296°
2026-05-06 16:19 2.01180 102.95184 28564 ft 463 kts 296°
2026-05-06 16:19 2.02592 102.92303 28012 ft 459 kts 297°
2026-05-06 16:19 2.03991 102.89448 27457 ft 456 kts 297°
2026-05-06 16:20 2.05382 102.86599 26815 ft 456 kts 296°
2026-05-06 16:20 2.06771 102.83755 26259 ft 454 kts 297°
2026-05-06 16:20 2.08149 102.80931 25723 ft 451 kts 297°
2026-05-06 16:20 2.09524 102.78116 25170 ft 449 kts 297°
2026-05-06 16:21 2.10889 102.75318 24634 ft 448 kts 297°
2026-05-06 16:21 2.12252 102.72526 24086 ft 446 kts 297°
2026-05-06 16:21 2.13608 102.69748 23610 ft 443 kts 297°
2026-05-06 16:21 2.14949 102.67000 23274 ft 435 kts 297°
2026-05-06 16:22 2.16252 102.64284 22750 ft 432 kts 294°
2026-05-06 16:22 2.17359 102.61480 21964 ft 436 kts 292°
2026-05-06 16:22 2.18473 102.58663 21346 ft 435 kts 292°
2026-05-06 16:22 2.19602 102.55846 20646 ft 442 kts 292°
2026-05-06 16:23 2.20759 102.52978 19917 ft 446 kts 292°
2026-05-06 16:23 2.21920 102.50104 19205 ft 446 kts 292°
2026-05-06 16:23 2.23084 102.47226 18498 ft 447 kts 292°
2026-05-06 16:23 2.24251 102.44338 17694 ft 448 kts 292°
2026-05-06 16:24 2.25417 102.41453 17018 ft 445 kts 292°
2026-05-06 16:24 2.26568 102.38607 16493 ft 438 kts 292°
2026-05-06 16:24 2.27701 102.35803 15994 ft 432 kts 292°
2026-05-06 16:24 2.28820 102.33036 15496 ft 426 kts 292°
2026-05-06 16:25 2.29925 102.30300 15019 ft 421 kts 292°
2026-05-06 16:25 2.31009 102.27619 14475 ft 410 kts 292°
2026-05-06 16:25 2.32076 102.24978 13449 ft 408 kts 292°
2026-05-06 16:25 2.33132 102.22364 12460 ft 403 kts 292°
2026-05-06 16:26 2.34170 102.19795 11546 ft 396 kts 292°
2026-05-06 16:26 2.35204 102.17237 10989 ft 395 kts 292°
2026-05-06 16:26 2.36224 102.14712 10604 ft 388 kts 292°
2026-05-06 16:26 2.37217 102.12253 10128 ft 385 kts 291°
2026-05-06 16:27 2.38216 102.09782 9654 ft 382 kts 291°
2026-05-06 16:27 2.39220 102.07297 9122 ft 378 kts 291°
2026-05-06 16:27 2.40200 102.04869 8618 ft 376 kts 292°
2026-05-06 16:27 2.41167 102.02477 8099 ft 364 kts 292°
2026-05-06 16:28 2.42100 102.00165 7464 ft 354 kts 292°
2026-05-06 16:28 2.42990 101.97964 7073 ft 338 kts 292°
2026-05-06 16:28 2.43861 101.95806 6680 ft 324 kts 292°
2026-05-06 16:28 2.44678 101.93782 6303 ft 312 kts 292°
2026-05-06 16:29 2.45485 101.91784 5915 ft 301 kts 292°
2026-05-06 16:29 2.46245 101.89901 5559 ft 291 kts 292°
2026-05-06 16:29 2.47137 101.88141 5188 ft 281 kts 309°
2026-05-06 16:29 2.48584 101.86902 4868 ft 269 kts 330°
2026-05-06 16:30 2.50173 101.85993 4538 ft 257 kts 330°
2026-05-06 16:30 2.50685 101.85680 4416 ft 252 kts 329°
2026-05-06 16:30 2.53030 101.84134 3807 ft 235 kts 326°
2026-05-06 16:30 2.54347 101.83244 3556 ft 221 kts 327°
2026-05-06 16:31 2.55567 101.82421 3472 ft 202 kts 327°
2026-05-06 16:31 2.56722 101.81643 3294 ft 200 kts 327°
2026-05-06 16:31 2.57875 101.80866 3057 ft 199 kts 327°
2026-05-06 16:31 2.59015 101.80099 2826 ft 192 kts 327°
2026-05-06 16:32 2.60069 101.79389 2588 ft 177 kts 326°
2026-05-06 16:32 2.61081 101.78707 2365 ft 174 kts 326°
2026-05-06 16:32 2.62084 101.78032 2142 ft 173 kts 326°
2026-05-06 16:32 2.63072 101.77364 1929 ft 166 kts 327°
2026-05-06 16:33 2.63692 101.76948 1816 ft 160 kts 326°
2026-05-06 16:33 2.64912 101.76128 1520 ft 156 kts 327°
2026-05-06 16:33 2.65806 101.75524 1319 ft 155 kts 327°
2026-05-06 16:34 2.67589 101.74321 939 ft 154 kts 327°
2026-05-06 16:34 2.68180 101.73926 822 ft 153 kts 327°
2026-05-06 16:34 2.69061 101.73340 631 ft 152 kts 327°
2026-05-06 16:34 2.69937 101.72752 429 ft 152 kts 326°
2026-05-06 16:35 2.70803 101.72161 230 ft 149 kts 325°
2026-05-06 16:35 2.71665 101.71580 60 ft 143 kts 326°
2026-05-06 16:35 2.72486 101.71028 62 ft 66 kts 326°
2026-05-06 16:35 2.72711 101.70878 59 ft 53 kts 326°
2026-05-06 16:36 2.72959 101.70729 62 ft 28 kts 337°
2026-05-06 16:36 2.73155 101.70693 63 ft 28 kts 355°
2026-05-06 16:36 2.73350 101.70672 71 ft 29 kts 341°
2026-05-06 16:36 2.73523 101.70568 68 ft 30 kts 327°
2026-05-06 16:37 2.73699 101.70454 69 ft 31 kts 327°
2026-05-06 16:37 2.73876 101.70330 72 ft 32 kts 325°
2026-05-06 16:37 2.74062 101.70203 74 ft 33 kts 326°
2026-05-06 16:37 2.74160 101.70139 74 ft 14 kts 327°
2026-05-06 16:38 2.74251 101.70079 70 ft 17 kts 325°
2026-05-06 16:38 2.74354 101.70008 65 ft 19 kts 326°
2026-05-06 16:38 2.74454 101.69954 65 ft 13 kts
2026-05-06 16:38 2.74517 101.70005 71 ft 12 kts 59°
2026-05-06 16:39 2.74567 101.70080 75 ft 14 kts 55°
2026-05-06 16:39 2.74624 101.70159 64 ft 12 kts 43°
2026-05-06 16:39 2.74703 101.70156 69 ft 14 kts 327°
2026-05-06 16:39 2.74782 101.70110 75 ft 12 kts 353°
2026-05-06 16:40 2.74825 101.70140 70 ft 7 kts 57°
2026-05-06 16:40 2.74856 101.70188 70 ft 10 kts 57°
2026-05-06 16:40 2.74899 101.70252 69 ft 12 kts 55°
2026-05-06 16:40 2.74953 101.70330 88 ft 15 kts 56°
2026-05-06 16:41 2.75009 101.70416 71 ft 8 kts 57°
2026-05-06 16:41 2.75034 101.70431 72 ft 4 kts 355°
2026-05-06 16:41 2.75059 101.70417 68 ft 5 kts 326°
2026-05-06 16:41 2.75086 101.70399 75 ft 5 kts 319°
2026-05-06 16:42 2.75097 101.70387 75 ft 1 kts 310°
2026-05-06 16:42 2.75099 101.70384 75 ft 0 kts 311°